MOLNIYA 3-24

Last updated on Nov. 13, 2019, 4:21 a.m. UTC

1 15738U 85040A   19316.25730360  .00000112  00000-0 -12635-1 0  9990
2 15738  63.9077 239.5429 6458263 254.2251 343.6903  2.55629751279667
UTC
Height (km)
Latitude
Longitude
Inclination
Orbital Period
UTC large
Height (km)
Speed (km/s)
/
Latitude / Longitude
Inclination (degrees)
Orbital Period (minutes)
Azimuth
Elevation
Range (km)
Doppler Factor
iOS Compass Heading
iOS Angle

Next 30 passes for location: Hong Kong

Rise time Rise Azimuth (degrees) Set time Set Azimuth (degrees) Duration Max altitude (degrees)

No matching passes for this satellites